Time,TemperatureF,DewpointF,PressureIn,WindDirection,WindDirectionDegrees,WindSpeedMPH,WindSpeedGustMPH,Humidity,HourlyPrecipIn,Conditions,Clouds,dailyrainin,SoftwareType,DateUTC
2013-02-07 00:03:00,41.9,15.6,25.34,West,260,4.5,4.9,34,0.00,,---,0.00,VWS V14.00,2013-02-07 07:03:00,
2013-02-07 00:08:00,41.2,15.6,25.34,WSW,256,5.8,5.8,35,0.00,,---,0.00,VWS V14.00,2013-02-07 07:08:00,
2013-02-07 00:13:00,40.6,17.0,25.34,WSW,256,4.9,5.4,38,0.00,,---,0.00,VWS V14.00,2013-02-07 07:13:00,
2013-02-07 00:18:00,40.5,17.5,25.34,WSW,250,5.4,5.4,39,0.00,,---,0.00,VWS V14.00,2013-02-07 07:18:00,
2013-02-07 00:23:00,40.3,17.3,25.34,WSW,250,5.4,5.4,39,0.00,,---,0.00,VWS V14.00,2013-02-07 07:23:00,
2013-02-07 00:28:00,40.3,17.3,25.34,WSW,252,5.4,5.4,39,0.00,,---,0.00,VWS V14.00,2013-02-07 07:28:00,
2013-02-07 00:33:00,40.3,17.3,25.34,WSW,254,5.8,6.3,39,0.00,,---,0.00,VWS V14.00,2013-02-07 07:33:00,
2013-02-07 00:38:00,40.3,17.9,25.34,WSW,257,5.4,5.8,40,0.00,,---,0.00,VWS V14.00,2013-02-07 07:38:00,
2013-02-07 00:43:00,40.5,18.6,25.34,WSW,256,5.4,5.4,41,0.00,,---,0.00,VWS V14.00,2013-02-07 07:43:00,
2013-02-07 00:48:00,40.6,18.2,25.34,WSW,257,4.9,5.4,40,0.00,,---,0.00,VWS V14.00,2013-02-07 07:48:00,
2013-02-07 00:53:00,40.8,18.4,25.34,WSW,258,6.7,6.7,40,0.00,,---,0.00,VWS V14.00,2013-02-07 07:53:00,
2013-02-07 00:58:00,40.8,18.4,25.34,WSW,256,6.7,6.7,40,0.00,,---,0.00,VWS V14.00,2013-02-07 07:58:00,
2013-02-07 01:03:00,40.8,18.4,25.34,WSW,256,5.4,6.3,40,0.00,,---,0.00,VWS V14.00,2013-02-07 08:03:00,
2013-02-07 01:08:00,40.6,18.2,25.34,WSW,256,5.4,6.3,40,0.00,,---,0.00,VWS V14.00,2013-02-07 08:08:00,
2013-02-07 01:13:00,40.5,18.1,25.34,WSW,253,5.4,5.4,40,0.00,,---,0.00,VWS V14.00,2013-02-07 08:13:00,
2013-02-07 01:18:00,40.3,17.9,25.34,WSW,251,5.4,5.4,40,0.00,,---,0.00,VWS V14.00,2013-02-07 08:18:00,
2013-02-07 01:23:00,40.3,18.5,25.34,WSW,248,5.8,6.3,41,0.00,,---,0.00,VWS V14.00,2013-02-07 08:23:00,
2013-02-07 01:28:00,40.3,18.5,25.34,WSW,251,5.8,5.8,41,0.00,,---,0.00,VWS V14.00,2013-02-07 08:28:00,
2013-02-07 01:33:00,40.5,18.6,25.34,WSW,249,5.8,5.8,41,0.00,,---,0.00,VWS V14.00,2013-02-07 08:33:00,
2013-02-07 01:38:00,40.5,18.6,25.34,WSW,248,5.8,6.3,41,0.00,,---,0.00,VWS V14.00,2013-02-07 08:38:00,
2013-02-07 01:43:00,40.5,18.6,25.34,WSW,248,5.4,5.8,41,0.00,,---,0.00,VWS V14.00,2013-02-07 08:43:00,
2013-02-07 01:48:00,40.5,18.6,25.34,WSW,253,5.8,6.3,41,0.00,,---,0.00,VWS V14.00,2013-02-07 08:48:00,
2013-02-07 01:53:00,40.5,18.6,25.34,WSW,254,5.8,6.3,41,0.00,,---,0.00,VWS V14.00,2013-02-07 08:53:00,
2013-02-07 01:58:00,40.5,18.6,25.34,WSW,253,6.3,6.3,41,0.00,,---,0.00,VWS V14.00,2013-02-07 08:58:00,
2013-02-07 02:03:00,40.5,18.6,25.34,WSW,256,6.3,6.3,41,0.00,,---,0.00,VWS V14.00,2013-02-07 09:03:00,
2013-02-07 02:09:00,40.5,18.6,25.34,WSW,256,6.3,6.3,41,0.00,,---,0.00,VWS V14.00,2013-02-07 09:09:00,
2013-02-07 02:14:00,40.6,19.4,25.34,WSW,254,6.3,7.2,42,0.00,,---,0.00,VWS V14.00,2013-02-07 09:14:00,
2013-02-07 02:19:00,40.6,18.8,25.34,WSW,256,5.8,5.8,41,0.00,,---,0.00,VWS V14.00,2013-02-07 09:19:00,
2013-02-07 02:24:00,40.6,18.8,25.34,WSW,253,5.8,6.3,41,0.00,,---,0.00,VWS V14.00,2013-02-07 09:24:00,
2013-02-07 02:29:00,40.6,18.8,25.34,WSW,256,5.8,6.3,41,0.00,,---,0.00,VWS V14.00,2013-02-07 09:29:00,
2013-02-07 02:34:00,40.6,18.8,25.34,WSW,256,5.4,6.3,41,0.00,,---,0.00,VWS V14.00,2013-02-07 09:34:00,
2013-02-07 02:39:00,40.8,19.0,25.34,WSW,256,5.8,5.8,41,0.00,,---,0.00,VWS V14.00,2013-02-07 09:39:00,
2013-02-07 02:44:00,40.6,18.8,25.34,WSW,251,5.4,5.4,41,0.00,,---,0.00,VWS V14.00,2013-02-07 09:44:00,
2013-02-07 02:49:00,40.5,18.6,25.34,WSW,253,6.3,6.3,41,0.00,,---,0.00,VWS V14.00,2013-02-07 09:49:00,
2013-02-07 02:54:00,40.1,18.3,25.34,WSW,256,5.4,5.4,41,0.00,,---,0.00,VWS V14.00,2013-02-07 09:54:00,
2013-02-07 02:59:00,39.9,18.7,25.34,WSW,256,6.3,6.3,42,0.00,,---,0.00,VWS V14.00,2013-02-07 09:59:00,
2013-02-07 03:04:00,40.1,19.4,25.34,WSW,255,6.7,6.7,43,0.00,,---,0.00,VWS V14.00,2013-02-07 10:04:00,
2013-02-07 03:09:00,40.3,19.6,25.34,WSW,254,6.3,6.3,43,0.00,,---,0.00,VWS V14.00,2013-02-07 10:09:00,
2013-02-07 03:14:00,40.3,19.6,25.34,WSW,257,6.3,6.3,43,0.00,,---,0.00,VWS V14.00,2013-02-07 10:14:00,
2013-02-07 03:19:00,40.3,19.0,25.34,WSW,254,6.3,6.3,42,0.00,,---,0.00,VWS V14.00,2013-02-07 10:19:00,
2013-02-07 03:24:00,40.1,18.9,25.34,WSW,252,5.8,6.7,42,0.00,,---,0.00,VWS V14.00,2013-02-07 10:24:00,
2013-02-07 03:29:00,39.9,19.2,25.34,WSW,255,5.4,6.3,43,0.00,,---,0.00,VWS V14.00,2013-02-07 10:29:00,
2013-02-07 03:34:00,39.9,19.2,25.34,WSW,254,6.3,6.3,43,0.00,,---,0.00,VWS V14.00,2013-02-07 10:34:00,
2013-02-07 03:39:00,39.7,19.1,25.34,WSW,256,6.3,6.3,43,0.00,,---,0.00,VWS V14.00,2013-02-07 10:39:00,
2013-02-07 03:44:00,39.9,19.8,25.34,WSW,257,5.4,5.8,44,0.00,,---,0.00,VWS V14.00,2013-02-07 10:44:00,
2013-02-07 03:49:00,39.9,19.8,25.34,West,259,6.3,6.3,44,0.00,,---,0.00,VWS V14.00,2013-02-07 10:49:00,
2013-02-07 03:54:00,40.3,20.1,25.34,WSW,253,6.3,6.7,44,0.00,,---,0.00,VWS V14.00,2013-02-07 10:54:00,
2013-02-07 03:59:00,40.6,19.9,25.34,West,261,5.4,6.3,43,0.00,,---,0.00,VWS V14.00,2013-02-07 10:59:00,
2013-02-07 04:04:00,41.0,20.2,25.34,West,262,6.3,8.1,43,0.00,,---,0.00,VWS V14.00,2013-02-07 11:04:00,
2013-02-07 04:09:00,41.7,20.3,25.34,West,263,8.3,8.3,42,0.00,,---,0.00,VWS V14.00,2013-02-07 11:09:00,
2013-02-07 04:14:00,42.4,19.8,25.34,West,259,7.6,8.3,40,0.00,,---,0.00,VWS V14.00,2013-02-07 11:14:00,
2013-02-07 04:20:00,42.8,19.6,25.34,WSW,255,7.6,7.6,39,0.00,,---,0.00,VWS V14.00,2013-02-07 11:20:00,
2013-02-07 04:25:00,42.8,19.0,25.34,WSW,254,5.4,5.8,38,0.00,,---,0.00,VWS V14.00,2013-02-07 11:25:00,
2013-02-07 04:30:00,42.3,18.5,25.34,WSW,252,6.3,6.3,38,0.00,,---,0.00,VWS V14.00,2013-02-07 11:30:00,
2013-02-07 04:35:00,41.5,18.4,25.34,WSW,252,6.3,6.3,39,0.00,,---,0.00,VWS V14.00,2013-02-07 11:35:00,
2013-02-07 04:40:00,40.8,18.4,25.34,WSW,249,6.3,6.3,40,0.00,,---,0.00,VWS V14.00,2013-02-07 11:40:00,
2013-02-07 04:45:00,40.5,18.6,25.34,WSW,252,6.3,6.3,41,0.00,,---,0.00,VWS V14.00,2013-02-07 11:45:00,
2013-02-07 04:50:00,39.9,18.7,25.34,WSW,250,4.9,5.4,42,0.00,,---,0.00,VWS V14.00,2013-02-07 11:50:00,
2013-02-07 04:55:00,39.7,19.1,25.34,WSW,255,5.8,6.3,43,0.00,,---,0.00,VWS V14.00,2013-02-07 11:55:00,
2013-02-07 05:00:00,39.7,19.6,25.34,WSW,257,4.9,6.3,44,0.00,,---,0.00,VWS V14.00,2013-02-07 12:00:00,
2013-02-07 05:05:00,39.7,19.6,25.34,WSW,254,5.8,5.8,44,0.00,,---,0.00,VWS V14.00,2013-02-07 12:05:00,
2013-02-07 05:10:00,39.6,19.5,25.37,WSW,250,5.4,5.4,44,0.00,,---,0.00,VWS V14.00,2013-02-07 12:10:00,
2013-02-07 05:15:00,39.2,19.1,25.37,WSW,250,6.3,6.3,44,0.00,,---,0.00,VWS V14.00,2013-02-07 12:15:00,
2013-02-07 05:20:00,39.0,19.5,25.37,WSW,250,5.4,5.4,45,0.00,,---,0.00,VWS V14.00,2013-02-07 12:20:00,
2013-02-07 05:25:00,39.0,20.0,25.37,WSW,251,7.2,7.6,46,0.00,,---,0.00,VWS V14.00,2013-02-07 12:25:00,
2013-02-07 05:30:00,39.2,20.2,25.37,WSW,251,4.9,4.9,46,0.00,,---,0.00,VWS V14.00,2013-02-07 12:30:00,
2013-02-07 05:35:00,39.2,19.7,25.37,WSW,254,5.8,5.8,45,0.00,,---,0.00,VWS V14.00,2013-02-07 12:35:00,
2013-02-07 05:40:00,39.0,19.5,25.37,WSW,253,4.0,4.0,45,0.00,,---,0.00,VWS V14.00,2013-02-07 12:40:00,
2013-02-07 05:45:00,38.7,19.2,25.37,WSW,253,0.0,0.0,45,0.00,,---,0.00,VWS V14.00,2013-02-07 12:45:00,
2013-02-07 05:50:00,38.7,19.7,25.37,WSW,253,0.0,0.0,46,0.00,,---,0.00,VWS V14.00,2013-02-07 12:50:00,
2013-02-07 05:55:00,38.7,19.7,25.37,WSW,253,0.0,0.0,46,0.00,,---,0.00,VWS V14.00,2013-02-07 12:55:00,
2013-02-07 06:00:00,38.5,19.5,25.37,WSW,253,0.0,0.0,46,0.00,,---,0.00,VWS V14.00,2013-02-07 13:00:00,
2013-02-07 06:05:00,38.1,19.2,25.37,WSW,253,0.0,0.0,46,0.00,,---,0.00,VWS V14.00,2013-02-07 13:05:00,
2013-02-07 06:10:00,38.5,19.5,25.37,WSW,253,0.0,0.0,46,0.00,,---,0.00,VWS V14.00,2013-02-07 13:10:00,
2013-02-07 06:15:00,38.3,19.9,25.37,WSW,253,0.0,0.0,47,0.00,,---,0.00,VWS V14.00,2013-02-07 13:15:00,
2013-02-07 06:20:00,38.7,19.7,25.37,WSW,253,0.0,0.0,46,0.00,,---,0.00,VWS V14.00,2013-02-07 13:20:00,
2013-02-07 06:25:00,37.9,18.5,25.37,WSW,253,0.0,0.0,45,0.00,,---,0.00,VWS V14.00,2013-02-07 13:25:00,
2013-02-07 06:30:00,37.8,18.3,25.37,WSW,253,0.0,0.0,45,0.00,,---,0.00,VWS V14.00,2013-02-07 13:30:00,
2013-02-07 06:35:00,37.0,17.7,25.37,WSW,253,0.0,0.0,45,0.00,,---,0.00,VWS V14.00,2013-02-07 13:35:00,
2013-02-07 06:40:00,36.7,17.4,25.37,WSW,253,0.0,0.0,45,0.00,,---,0.00,VWS V14.00,2013-02-07 13:40:00,
2013-02-07 06:45:00,36.1,17.4,25.37,WSW,253,0.0,0.0,46,0.00,,---,0.00,VWS V14.00,2013-02-07 13:45:00,
2013-02-07 06:50:00,36.0,17.2,25.37,WSW,253,0.0,0.0,46,0.00,,---,0.00,VWS V14.00,2013-02-07 13:50:00,
2013-02-07 06:55:00,35.2,16.5,25.37,WSW,253,4.0,4.0,46,0.00,,---,0.00,VWS V14.00,2013-02-07 13:55:00,
2013-02-07 07:00:00,35.1,17.4,25.37,WSW,253,3.6,4.0,48,0.00,,---,0.00,VWS V14.00,2013-02-07 14:00:00,
2013-02-07 07:05:00,34.9,17.7,25.37,WSW,253,2.7,3.1,49,0.00,,---,0.00,VWS V14.00,2013-02-07 14:05:00,
2013-02-07 07:10:00,34.9,18.1,25.37,WSW,253,0.0,0.0,50,0.00,,---,0.00,VWS V14.00,2013-02-07 14:10:00,
2013-02-07 07:16:00,34.9,18.6,25.37,WSW,253,0.0,0.0,51,0.00,,---,0.00,VWS V14.00,2013-02-07 14:16:00,
2013-02-07 07:21:00,35.1,19.2,25.37,WSW,256,0.0,0.0,52,0.00,,---,0.00,VWS V14.00,2013-02-07 14:21:00,
2013-02-07 07:26:00,35.6,20.2,25.37,West,264,2.2,2.2,53,0.00,,---,0.00,VWS V14.00,2013-02-07 14:26:00,
2013-02-07 07:31:00,36.5,21.5,25.37,West,265,4.0,4.0,54,0.00,,---,0.00,VWS V14.00,2013-02-07 14:31:00,
2013-02-07 07:36:00,37.9,23.7,25.37,West,270,0.0,2.7,56,0.00,,---,0.00,VWS V14.00,2013-02-07 14:36:00,
2013-02-07 07:41:00,38.8,24.5,25.37,West,270,0.0,0.0,56,0.00,,---,0.00,VWS V14.00,2013-02-07 14:41:00,
2013-02-07 07:46:00,39.7,24.9,25.37,West,270,0.0,0.0,55,0.00,,---,0.00,VWS V14.00,2013-02-07 14:46:00,
2013-02-07 07:51:00,40.6,25.8,25.37,West,270,0.0,0.0,55,0.00,,---,0.00,VWS V14.00,2013-02-07 14:51:00,
2013-02-07 07:56:00,42.1,26.6,25.37,NE,47,4.0,4.9,54,0.00,,---,0.00,VWS V14.00,2013-02-07 14:56:00,
2013-02-07 08:01:00,43.5,27.5,25.37,NE,39,0.0,0.0,53,0.00,,---,0.00,VWS V14.00,2013-02-07 15:01:00,
2013-02-07 08:06:00,44.6,28.1,25.37,NE,39,0.0,0.0,52,0.00,,---,0.00,VWS V14.00,2013-02-07 15:06:00,
2013-02-07 08:11:00,45.3,28.3,25.40,NE,39,0.0,0.0,51,0.00,,---,0.00,VWS V14.00,2013-02-07 15:11:00,
2013-02-07 08:16:00,45.9,27.3,25.40,NE,37,0.0,0.0,48,0.00,,---,0.00,VWS V14.00,2013-02-07 15:16:00,
2013-02-07 08:21:00,46.0,26.4,25.40,NE,34,0.0,0.0,46,0.00,,---,0.00,VWS V14.00,2013-02-07 15:21:00,
2013-02-07 08:26:00,46.2,22.6,25.40,NNE,28,0.0,0.0,39,0.00,,---,0.00,VWS V14.00,2013-02-07 15:26:00,
2013-02-07 08:31:00,46.2,20.1,25.40,NNE,20,0.0,0.0,35,0.00,,---,0.00,VWS V14.00,2013-02-07 15:31:00,
2013-02-07 08:36:00,46.6,18.3,25.40,North,349,0.0,0.0,32,0.00,,---,0.00,VWS V14.00,2013-02-07 15:36:00,
2013-02-07 08:41:00,46.8,18.5,25.40,NNW,346,0.0,0.0,32,0.00,,---,0.00,VWS V14.00,2013-02-07 15:41:00,
2013-02-07 08:46:00,47.3,20.4,25.40,NNE,17,0.0,0.0,34,0.00,,---,0.00,VWS V14.00,2013-02-07 15:46:00,
2013-02-07 08:51:00,47.8,20.9,25.40,NNE,17,0.0,0.0,34,0.00,,---,0.00,VWS V14.00,2013-02-07 15:51:00,
2013-02-07 08:56:00,48.7,20.9,25.40,NNE,17,0.0,0.0,33,0.00,,---,0.00,VWS V14.00,2013-02-07 15:56:00,
2013-02-07 09:01:00,49.1,19.8,25.40,ENE,62,0.0,0.0,31,0.00,,---,0.00,VWS V14.00,2013-02-07 16:01:00,
2013-02-07 09:06:00,49.3,19.2,25.40,NE,44,0.0,0.0,30,0.00,,---,0.00,VWS V14.00,2013-02-07 16:06:00,
2013-02-07 09:11:00,49.6,18.7,25.40,NE,44,0.0,0.0,29,0.00,,---,0.00,VWS V14.00,2013-02-07 16:11:00,
2013-02-07 09:16:00,49.8,18.9,25.40,NE,47,0.0,0.0,29,0.00,,---,0.00,VWS V14.00,2013-02-07 16:16:00,
2013-02-07 09:21:00,50.2,18.4,25.40,ENE,57,0.0,0.0,28,0.00,,---,0.00,VWS V14.00,2013-02-07 16:21:00,
2013-02-07 09:26:00,50.7,18.8,25.40,ENE,57,0.0,0.0,28,0.00,,---,0.00,VWS V14.00,2013-02-07 16:26:00,
2013-02-07 09:31:00,51.6,19.6,25.40,ENE,57,0.0,0.0,28,0.00,,---,0.00,VWS V14.00,2013-02-07 16:31:00,
2013-02-07 09:36:00,52.5,19.5,25.40,ENE,57,0.0,0.0,27,0.00,,---,0.00,VWS V14.00,2013-02-07 16:36:00,
2013-02-07 09:41:00,52.7,19.7,25.40,ENE,57,0.0,0.0,27,0.00,,---,0.00,VWS V14.00,2013-02-07 16:41:00,
2013-02-07 09:46:00,53.1,19.1,25.40,ESE,103,0.0,0.0,26,0.00,,---,0.00,VWS V14.00,2013-02-07 16:46:00,
2013-02-07 09:51:00,53.1,19.1,25.40,NNE,19,0.0,0.0,26,0.00,,---,0.00,VWS V14.00,2013-02-07 16:51:00,
2013-02-07 09:56:00,53.1,19.1,25.40,NE,41,0.0,0.0,26,0.00,,---,0.00,VWS V14.00,2013-02-07 16:56:00,
2013-02-07 10:01:00,53.4,19.4,25.40,NNE,13,0.0,0.0,26,0.00,,---,0.00,VWS V14.00,2013-02-07 17:01:00,
2013-02-07 10:06:00,53.8,19.7,25.40,NNE,18,0.0,0.0,26,0.00,,---,0.00,VWS V14.00,2013-02-07 17:06:00,
2013-02-07 10:11:00,54.7,20.5,25.40,NNE,19,0.0,0.0,26,0.00,,---,0.00,VWS V14.00,2013-02-07 17:11:00,
2013-02-07 10:16:00,55.2,20.0,25.40,NNE,28,0.0,0.0,25,0.00,,---,0.00,VWS V14.00,2013-02-07 17:16:00,
2013-02-07 10:21:00,55.6,17.4,25.40,NE,34,2.2,4.0,22,0.00,,---,0.00,VWS V14.00,2013-02-07 17:21:00,
2013-02-07 10:26:00,55.4,17.2,25.40,ENE,75,0.0,0.0,22,0.00,,---,0.00,VWS V14.00,2013-02-07 17:26:00,
2013-02-07 10:31:00,55.6,17.4,25.40,NE,36,0.0,0.0,22,0.00,,---,0.00,VWS V14.00,2013-02-07 17:31:00,
2013-02-07 10:37:00,56.1,15.6,25.40,NE,41,0.0,0.0,20,0.00,,---,0.00,VWS V14.00,2013-02-07 17:37:00,
2013-02-07 10:42:00,56.1,15.6,25.40,SE,140,0.0,0.0,20,0.00,,---,0.00,VWS V14.00,2013-02-07 17:42:00,
2013-02-07 10:47:00,56.3,15.8,25.40,NE,34,8.7,8.7,20,0.00,,---,0.00,VWS V14.00,2013-02-07 17:47:00,
2013-02-07 10:52:00,56.3,15.8,25.40,North,353,0.0,0.0,20,0.00,,---,0.00,VWS V14.00,2013-02-07 17:52:00,
2013-02-07 10:57:00,56.1,15.6,25.40,NW,304,3.1,3.1,20,0.00,,---,0.00,VWS V14.00,2013-02-07 17:57:00,
2013-02-07 11:02:00,56.3,15.8,25.40,NNE,18,2.7,3.1,20,0.00,,---,0.00,VWS V14.00,2013-02-07 18:02:00,
2013-02-07 11:07:00,56.7,16.1,25.40,North,9,0.0,0.0,20,0.00,,---,0.00,VWS V14.00,2013-02-07 18:07:00,
2013-02-07 11:12:00,56.8,16.2,25.40,East,85,6.3,6.3,20,0.00,,---,0.00,VWS V14.00,2013-02-07 18:12:00,
2013-02-07 11:17:00,56.8,16.2,25.40,ESE,108,2.7,6.3,20,0.00,,---,0.00,VWS V14.00,2013-02-07 18:17:00,
2013-02-07 11:22:00,56.8,16.2,25.40,East,87,0.0,0.0,20,0.00,,---,0.00,VWS V14.00,2013-02-07 18:22:00,
2013-02-07 11:27:00,57.2,15.3,25.40,SE,141,3.1,3.1,19,0.00,,---,0.00,VWS V14.00,2013-02-07 18:27:00,
2013-02-07 11:32:00,57.2,15.3,25.40,NE,38,2.2,4.9,19,0.00,,---,0.00,VWS V14.00,2013-02-07 18:32:00,
2013-02-07 11:37:00,57.4,15.5,25.40,East,98,4.9,5.8,19,0.00,,---,0.00,VWS V14.00,2013-02-07 18:37:00,
2013-02-07 11:42:00,57.6,15.6,25.40,East,98,5.8,7.6,19,0.00,,---,0.00,VWS V14.00,2013-02-07 18:42:00,
2013-02-07 11:47:00,57.4,15.5,25.40,ESE,102,3.1,4.0,19,0.00,,---,0.00,VWS V14.00,2013-02-07 18:47:00,
2013-02-07 11:52:00,57.6,15.6,25.40,ENE,78,4.9,4.9,19,0.00,,---,0.00,VWS V14.00,2013-02-07 18:52:00,
2013-02-07 11:57:00,57.6,15.6,25.40,East,87,0.0,0.0,19,0.00,,---,0.00,VWS V14.00,2013-02-07 18:57:00,
2013-02-07 12:02:00,58.1,16.1,25.40,NE,35,4.0,4.0,19,0.00,,---,0.00,VWS V14.00,2013-02-07 19:02:00,
2013-02-07 12:07:00,58.1,16.1,25.40,North,10,0.0,0.0,19,0.00,,---,0.00,VWS V14.00,2013-02-07 19:07:00,
2013-02-07 12:12:00,58.5,16.4,25.37,ENE,78,6.3,8.3,19,0.00,,---,0.00,VWS V14.00,2013-02-07 19:12:00,
2013-02-07 12:17:00,58.1,16.1,25.37,NNE,29,3.1,3.1,19,0.00,,---,0.00,VWS V14.00,2013-02-07 19:17:00,
2013-02-07 12:22:00,58.3,16.2,25.37,NNW,334,0.0,2.2,19,0.00,,---,0.00,VWS V14.00,2013-02-07 19:22:00,
2013-02-07 12:27:00,58.3,16.2,25.37,NE,50,6.3,6.3,19,0.00,,---,0.00,VWS V14.00,2013-02-07 19:27:00,
2013-02-07 12:32:00,58.8,16.7,25.37,NNE,22,8.7,10.5,19,0.00,,---,0.00,VWS V14.00,2013-02-07 19:32:00,
2013-02-07 12:37:00,58.8,16.7,25.37,ESE,112,3.1,3.1,19,0.00,,---,0.00,VWS V14.00,2013-02-07 19:37:00,
2013-02-07 12:42:00,59.0,16.8,25.37,ESE,116,5.8,5.8,19,0.00,,---,0.00,VWS V14.00,2013-02-07 19:42:00,
2013-02-07 12:47:00,58.8,16.7,25.37,East,81,6.3,7.6,19,0.00,,---,0.00,VWS V14.00,2013-02-07 19:47:00,
2013-02-07 12:52:00,59.0,16.8,25.37,East,100,0.0,0.0,19,0.00,,---,0.00,VWS V14.00,2013-02-07 19:52:00,
2013-02-07 12:57:00,59.5,17.3,25.37,NNE,23,0.0,5.4,19,0.00,,---,0.00,VWS V14.00,2013-02-07 19:57:00,
2013-02-07 13:02:00,60.3,17.9,25.37,ENE,63,6.3,6.3,19,0.00,,---,0.00,VWS V14.00,2013-02-07 20:02:00,
2013-02-07 13:07:00,60.1,17.7,25.37,NNE,33,0.0,0.0,19,0.00,,---,0.00,VWS V14.00,2013-02-07 20:07:00,
2013-02-07 13:13:00,59.9,17.6,25.34,NE,40,4.5,6.3,19,0.00,,---,0.00,VWS V14.00,2013-02-07 20:13:00,
2013-02-07 13:18:00,59.7,17.4,25.34,NE,38,6.3,8.3,19,0.00,,---,0.00,VWS V14.00,2013-02-07 20:18:00,
2013-02-07 13:23:00,59.9,17.6,25.34,ESE,108,0.0,4.0,19,0.00,,---,0.00,VWS V14.00,2013-02-07 20:23:00,
2013-02-07 13:28:00,60.3,17.9,25.34,North,9,0.0,0.0,19,0.00,,---,0.00,VWS V14.00,2013-02-07 20:28:00,
2013-02-07 13:33:00,60.4,18.0,25.34,SE,125,0.0,0.0,19,0.00,,---,0.00,VWS V14.00,2013-02-07 20:33:00,
2013-02-07 13:38:00,60.3,17.9,25.34,NE,40,9.2,9.2,19,0.00,,---,0.00,VWS V14.00,2013-02-07 20:38:00,
2013-02-07 13:43:00,60.6,18.2,25.34,NE,52,5.4,8.3,19,0.00,,---,0.00,VWS V14.00,2013-02-07 20:43:00,
2013-02-07 13:48:00,60.6,18.2,25.34,North,1,0.0,7.6,19,0.00,,---,0.00,VWS V14.00,2013-02-07 20:48:00,
2013-02-07 13:53:00,60.8,18.3,25.34,North,353,2.7,3.1,19,0.00,,---,0.00,VWS V14.00,2013-02-07 20:53:00,
2013-02-07 13:58:00,61.0,18.5,25.34,NE,55,4.0,5.8,19,0.00,,---,0.00,VWS V14.00,2013-02-07 20:58:00,
2013-02-07 14:03:00,60.8,18.3,25.34,SSE,164,0.0,0.0,19,0.00,,---,0.00,VWS V14.00,2013-02-07 21:03:00,
2013-02-07 14:08:00,61.0,18.5,25.34,SW,229,6.3,6.3,19,0.00,,---,0.00,VWS V14.00,2013-02-07 21:08:00,
2013-02-07 14:13:00,61.2,18.6,25.34,West,268,0.0,0.0,19,0.00,,---,0.00,VWS V14.00,2013-02-07 21:13:00,
2013-02-07 14:18:00,61.3,18.8,25.34,WSW,247,4.5,4.9,19,0.00,,---,0.00,VWS V14.00,2013-02-07 21:18:00,
2013-02-07 14:23:00,61.2,18.6,25.34,WSW,238,0.0,0.0,19,0.00,,---,0.00,VWS V14.00,2013-02-07 21:23:00,
2013-02-07 14:28:00,61.2,18.6,25.34,NE,35,0.0,2.2,19,0.00,,---,0.00,VWS V14.00,2013-02-07 21:28:00,
2013-02-07 14:33:00,61.0,18.5,25.34,ESE,103,3.1,5.4,19,0.00,,---,0.00,VWS V14.00,2013-02-07 21:33:00,
2013-02-07 14:38:00,61.5,18.9,25.34,ENE,63,5.4,5.8,19,0.00,,---,0.00,VWS V14.00,2013-02-07 21:38:00,
2013-02-07 14:43:00,61.3,18.8,25.31,North,357,0.0,0.0,19,0.00,,---,0.00,VWS V14.00,2013-02-07 21:43:00,
2013-02-07 14:48:00,61.7,19.0,25.31,NE,55,3.6,4.9,19,0.00,,---,0.00,VWS V14.00,2013-02-07 21:48:00,
2013-02-07 14:53:00,61.7,19.0,25.31,NNE,23,7.6,7.6,19,0.00,,---,0.00,VWS V14.00,2013-02-07 21:53:00,
2013-02-07 14:58:00,61.9,19.2,25.31,NE,39,5.4,5.4,19,0.00,,---,0.00,VWS V14.00,2013-02-07 21:58:00,
2013-02-07 15:03:00,62.1,19.3,25.31,WSW,252,2.2,2.2,19,0.00,,---,0.00,VWS V14.00,2013-02-07 22:03:00,
2013-02-07 15:08:00,62.2,19.5,25.31,SSE,148,4.0,7.6,19,0.00,,---,0.00,VWS V14.00,2013-02-07 22:08:00,
2013-02-07 15:13:00,62.1,19.3,25.31,SSE,166,5.8,6.3,19,0.00,,---,0.00,VWS V14.00,2013-02-07 22:13:00,
2013-02-07 15:18:00,61.9,19.2,25.31,ENE,70,0.0,0.0,19,0.00,,---,0.00,VWS V14.00,2013-02-07 22:18:00,
2013-02-07 15:23:00,62.1,19.3,25.31,South,183,0.0,0.0,19,0.00,,---,0.00,VWS V14.00,2013-02-07 22:23:00,
2013-02-07 15:28:00,62.6,18.5,25.31,WSW,241,0.0,0.0,18,0.00,,---,0.00,VWS V14.00,2013-02-07 22:28:00,
2013-02-07 15:33:00,63.0,18.8,25.31,SE,140,2.7,2.7,18,0.00,,---,0.00,VWS V14.00,2013-02-07 22:33:00,
2013-02-07 15:38:00,63.0,18.8,25.31,South,173,2.2,3.6,18,0.00,,---,0.00,VWS V14.00,2013-02-07 22:38:00,
2013-02-07 15:43:00,63.0,18.8,25.31,East,95,4.0,4.0,18,0.00,,---,0.00,VWS V14.00,2013-02-07 22:43:00,
2013-02-07 15:48:00,63.0,18.8,25.31,SSE,147,3.1,5.8,18,0.00,,---,0.00,VWS V14.00,2013-02-07 22:48:00,
2013-02-07 15:53:00,62.6,18.5,25.31,South,178,0.0,0.0,18,0.00,,---,0.00,VWS V14.00,2013-02-07 22:53:00,
2013-02-07 15:58:00,62.4,19.6,25.31,ESE,115,3.1,3.1,19,0.00,,---,0.00,VWS V14.00,2013-02-07 22:58:00,
2013-02-07 16:03:00,62.2,19.5,25.31,SSE,152,0.0,3.6,19,0.00,,---,0.00,VWS V14.00,2013-02-07 23:03:00,
2013-02-07 16:08:00,62.1,19.3,25.31,SSE,149,0.0,0.0,19,0.00,,---,0.00,VWS V14.00,2013-02-07 23:08:00,
2013-02-07 16:14:00,62.8,18.7,25.31,SSE,158,0.0,0.0,18,0.00,,---,0.00,VWS V14.00,2013-02-07 23:14:00,
2013-02-07 16:19:00,63.5,19.3,25.31,East,100,4.9,4.9,18,0.00,,---,0.00,VWS V14.00,2013-02-07 23:19:00,
2013-02-07 16:24:00,63.1,19.0,25.31,SE,126,0.0,6.3,18,0.00,,---,0.00,VWS V14.00,2013-02-07 23:24:00,
2013-02-07 16:29:00,62.6,18.5,25.31,ESE,105,2.7,4.5,18,0.00,,---,0.00,VWS V14.00,2013-02-07 23:29:00,
2013-02-07 16:34:00,62.4,19.6,25.31,ESE,119,0.0,0.0,19,0.00,,---,0.00,VWS V14.00,2013-02-07 23:34:00,
2013-02-07 16:39:00,62.6,18.5,25.31,East,79,0.0,0.0,18,0.00,,---,0.00,VWS V14.00,2013-02-07 23:39:00,
2013-02-07 16:44:00,62.2,19.5,25.31,SE,124,3.6,3.6,19,0.00,,---,0.00,VWS V14.00,2013-02-07 23:44:00,
2013-02-07 16:49:00,62.1,19.3,25.31,SE,124,2.7,4.0,19,0.00,,---,0.00,VWS V14.00,2013-02-07 23:49:00,
2013-02-07 16:54:00,61.9,19.2,25.31,ESE,122,0.0,0.0,19,0.00,,---,0.00,VWS V14.00,2013-02-07 23:54:00,
2013-02-07 16:59:00,61.9,19.2,25.31,ESE,122,0.0,0.0,19,0.00,,---,0.00,VWS V14.00,2013-02-07 23:59:00,
2013-02-07 17:04:00,61.7,19.0,25.31,NE,47,0.0,0.0,19,0.00,,---,0.00,VWS V14.00,2013-02-08 00:04:00,
2013-02-07 17:09:00,61.7,19.0,25.31,ESE,116,6.3,6.3,19,0.00,,---,0.00,VWS V14.00,2013-02-08 00:09:00,
2013-02-07 17:14:00,60.8,18.3,25.31,ESE,109,4.0,4.9,19,0.00,,---,0.00,VWS V14.00,2013-02-08 00:14:00,
2013-02-07 17:19:00,59.9,15.0,25.31,SE,131,0.0,0.0,17,0.00,,---,0.00,VWS V14.00,2013-02-08 00:19:00,
2013-02-07 17:24:00,58.8,14.1,25.31,South,180,0.0,0.0,17,0.00,,---,0.00,VWS V14.00,2013-02-08 00:24:00,
2013-02-07 17:29:00,57.7,13.2,25.31,South,179,0.0,0.0,17,0.00,,---,0.00,VWS V14.00,2013-02-08 00:29:00,
2013-02-07 17:34:00,56.8,12.5,25.31,South,179,0.0,0.0,17,0.00,,---,0.00,VWS V14.00,2013-02-08 00:34:00,
2013-02-07 17:39:00,55.4,11.3,25.31,SSW,213,2.2,2.2,17,0.00,,---,0.00,VWS V14.00,2013-02-08 00:39:00,
2013-02-07 17:44:00,54.0,11.4,25.31,SW,214,0.0,0.0,18,0.00,,---,0.00,VWS V14.00,2013-02-08 00:44:00,
2013-02-07 17:49:00,53.2,10.9,25.31,SW,218,0.0,0.0,18,0.00,,---,0.00,VWS V14.00,2013-02-08 00:49:00,
2013-02-07 17:54:00,51.8,9.7,25.31,SW,220,0.0,0.0,18,0.00,,---,0.00,VWS V14.00,2013-02-08 00:54:00,
2013-02-07 17:59:00,50.9,10.1,25.31,SW,223,0.0,0.0,19,0.00,,---,0.00,VWS V14.00,2013-02-08 00:59:00,
2013-02-07 18:04:00,50.2,9.5,25.31,SW,226,3.6,4.0,19,0.00,,---,0.00,VWS V14.00,2013-02-08 01:04:00,
2013-02-07 18:09:00,49.5,8.9,25.31,SW,226,3.6,4.0,19,0.00,,---,0.00,VWS V14.00,2013-02-08 01:09:00,
2013-02-07 18:14:00,49.3,8.8,25.31,SW,226,3.1,3.6,19,0.00,,---,0.00,VWS V14.00,2013-02-08 01:14:00,
2013-02-07 18:19:00,49.1,8.6,25.31,SW,226,0.0,0.0,19,0.00,,---,0.00,VWS V14.00,2013-02-08 01:19:00,
2013-02-07 18:24:00,49.1,8.6,25.31,SW,226,3.1,3.1,19,0.00,,---,0.00,VWS V14.00,2013-02-08 01:24:00,
2013-02-07 18:29:00,49.3,8.8,25.31,SW,225,3.6,3.6,19,0.00,,---,0.00,VWS V14.00,2013-02-08 01:29:00,
2013-02-07 18:34:00,49.3,8.8,25.31,SW,227,3.6,4.0,19,0.00,,---,0.00,VWS V14.00,2013-02-08 01:34:00,
2013-02-07 18:40:00,49.1,8.6,25.31,SW,228,4.9,4.9,19,0.00,,---,0.00,VWS V14.00,2013-02-08 01:40:00,
2013-02-07 18:45:00,49.1,8.6,25.31,SW,228,2.7,3.6,19,0.00,,---,0.00,VWS V14.00,2013-02-08 01:45:00,
2013-02-07 18:50:00,49.1,8.6,25.31,SW,228,0.0,0.0,19,0.00,,---,0.00,VWS V14.00,2013-02-08 01:50:00,
2013-02-07 18:55:00,49.3,8.8,25.31,SW,228,3.1,3.6,19,0.00,,---,0.00,VWS V14.00,2013-02-08 01:55:00,
2013-02-07 19:00:00,48.7,8.3,25.31,SW,228,0.0,0.0,19,0.00,,---,0.00,VWS V14.00,2013-02-08 02:00:00,
2013-02-07 19:05:00,48.0,7.7,25.31,SW,228,0.0,2.2,19,0.00,,---,0.00,VWS V14.00,2013-02-08 02:05:00,
2013-02-07 19:10:00,47.5,7.3,25.31,SW,228,0.0,0.0,19,0.00,,---,0.00,VWS V14.00,2013-02-08 02:10:00,
2013-02-07 19:15:00,46.8,6.7,25.31,WSW,244,5.4,5.8,19,0.00,,---,0.00,VWS V14.00,2013-02-08 02:15:00,
2013-02-07 19:20:00,46.2,7.4,25.31,WSW,252,5.4,5.4,20,0.00,,---,0.00,VWS V14.00,2013-02-08 02:20:00,
2013-02-07 19:25:00,45.7,6.9,25.31,WSW,254,5.8,5.8,20,0.00,,---,0.00,VWS V14.00,2013-02-08 02:25:00,
2013-02-07 19:30:00,45.5,6.8,25.31,West,259,4.9,5.4,20,0.00,,---,0.00,VWS V14.00,2013-02-08 02:30:00,
2013-02-07 19:35:00,45.5,8.9,25.31,WSW,257,4.0,4.0,22,0.00,,---,0.00,VWS V14.00,2013-02-08 02:35:00,
2013-02-07 19:40:00,45.5,8.9,25.31,WSW,245,4.0,4.0,22,0.00,,---,0.00,VWS V14.00,2013-02-08 02:40:00,
2013-02-07 19:45:00,45.3,8.7,25.31,WSW,243,4.0,4.0,22,0.00,,---,0.00,VWS V14.00,2013-02-08 02:45:00,
2013-02-07 19:50:00,44.8,8.3,25.31,WSW,242,3.6,4.0,22,0.00,,---,0.00,VWS V14.00,2013-02-08 02:50:00,
2013-02-07 19:55:00,44.1,8.6,25.31,WSW,242,4.9,4.9,23,0.00,,---,0.00,VWS V14.00,2013-02-08 02:55:00,
2013-02-07 20:00:00,43.3,8.0,25.31,WSW,240,4.5,4.5,23,0.00,,---,0.00,VWS V14.00,2013-02-08 03:00:00,
2013-02-07 20:05:00,43.2,7.9,25.31,SW,230,4.9,5.4,23,0.00,,---,0.00,VWS V14.00,2013-02-08 03:05:00,
2013-02-07 20:10:00,43.9,8.5,25.31,SW,227,3.1,4.0,23,0.00,,---,0.00,VWS V14.00,2013-02-08 03:10:00,
2013-02-07 20:15:00,45.0,8.4,25.31,SW,227,4.5,4.9,22,0.00,,---,0.00,VWS V14.00,2013-02-08 03:15:00,
2013-02-07 20:20:00,45.5,8.9,25.31,SW,228,5.4,5.4,22,0.00,,---,0.00,VWS V14.00,2013-02-08 03:20:00,
2013-02-07 20:25:00,45.9,9.2,25.31,South,178,5.8,5.8,22,0.00,,---,0.00,VWS V14.00,2013-02-08 03:25:00,
2013-02-07 20:30:00,46.8,9.9,25.31,SW,216,4.9,5.4,22,0.00,,---,0.00,VWS V14.00,2013-02-08 03:30:00,
2013-02-07 20:35:00,47.3,10.4,25.31,SW,230,4.9,5.8,22,0.00,,---,0.00,VWS V14.00,2013-02-08 03:35:00,
2013-02-07 20:40:00,47.8,10.9,25.31,SW,220,4.0,4.5,22,0.00,,---,0.00,VWS V14.00,2013-02-08 03:40:00,
2013-02-07 20:45:00,47.8,10.9,25.31,SW,216,3.6,4.0,22,0.00,,---,0.00,VWS V14.00,2013-02-08 03:45:00,
2013-02-07 20:50:00,47.7,10.7,25.31,SW,225,4.9,4.9,22,0.00,,---,0.00,VWS V14.00,2013-02-08 03:50:00,
2013-02-07 20:55:00,47.3,10.4,25.31,SW,223,5.4,5.4,22,0.00,,---,0.00,VWS V14.00,2013-02-08 03:55:00,
2013-02-07 21:00:00,46.9,10.1,25.31,SW,229,4.0,4.0,22,0.00,,---,0.00,VWS V14.00,2013-02-08 04:00:00,
2013-02-07 21:06:00,46.9,10.1,25.31,SW,230,5.4,5.4,22,0.00,,---,0.00,VWS V14.00,2013-02-08 04:06:00,
2013-02-07 21:11:00,47.3,10.4,25.31,SW,232,5.4,5.8,22,0.00,,---,0.00,VWS V14.00,2013-02-08 04:11:00,
2013-02-07 21:16:00,48.0,11.0,25.31,SW,230,4.0,4.0,22,0.00,,---,0.00,VWS V14.00,2013-02-08 04:16:00,
2013-02-07 21:21:00,48.6,10.4,25.31,SW,230,3.1,3.1,21,0.00,,---,0.00,VWS V14.00,2013-02-08 04:21:00,
2013-02-07 21:26:00,48.2,10.1,25.31,SW,229,4.0,4.0,21,0.00,,---,0.00,VWS V14.00,2013-02-08 04:26:00,
2013-02-07 21:31:00,47.8,10.9,25.31,SW,230,4.9,4.9,22,0.00,,---,0.00,VWS V14.00,2013-02-08 04:31:00,
2013-02-07 21:36:00,47.8,10.9,25.31,SW,229,4.0,4.0,22,0.00,,---,0.00,VWS V14.00,2013-02-08 04:36:00,
2013-02-07 21:41:00,47.7,10.7,25.31,SW,229,4.0,4.0,22,0.00,,---,0.00,VWS V14.00,2013-02-08 04:41:00,
2013-02-07 21:46:00,46.9,10.1,25.31,SW,236,3.6,4.0,22,0.00,,---,0.00,VWS V14.00,2013-02-08 04:46:00,
2013-02-07 21:51:00,45.7,9.0,25.31,WSW,242,0.0,3.6,22,0.00,,---,0.00,VWS V14.00,2013-02-08 04:51:00,
2013-02-07 21:56:00,44.8,8.3,25.31,West,265,0.0,0.0,22,0.00,,---,0.00,VWS V14.00,2013-02-08 04:56:00,
2013-02-07 22:00:00,44.8,8.3,25.31,West,265,0.0,0.0,22,0.00,,---,0.00,VWS V14.00,2013-02-08 05:00:00,
2013-02-07 22:01:00,44.6,8.1,25.31,West,265,0.0,0.0,22,0.00,,---,0.00,VWS V14.00,2013-02-08 05:01:00,
2013-02-07 22:02:00,44.6,8.1,25.31,West,265,0.0,0.0,22,0.00,,---,0.00,VWS V14.00,2013-02-08 05:02:00,
2013-02-07 22:07:00,43.9,8.5,25.31,West,265,0.0,0.0,23,0.00,,---,0.00,VWS V14.00,2013-02-08 05:07:00,
2013-02-07 22:11:00,43.3,8.0,25.31,West,265,0.0,0.0,23,0.00,,---,0.00,VWS V14.00,2013-02-08 05:11:00,
2013-02-07 22:16:00,42.6,7.4,25.31,West,265,0.0,0.0,23,0.00,,---,0.00,VWS V14.00,2013-02-08 05:16:00,
2013-02-07 22:21:00,41.9,6.8,25.31,West,265,0.0,0.0,23,0.00,,---,0.00,VWS V14.00,2013-02-08 05:21:00,
2013-02-07 22:26:00,41.2,6.2,25.31,West,265,0.0,0.0,23,0.00,,---,0.00,VWS V14.00,2013-02-08 05:26:00,
2013-02-07 22:31:00,40.8,5.9,25.31,West,265,0.0,0.0,23,0.00,,---,0.00,VWS V14.00,2013-02-08 05:31:00,
2013-02-07 22:36:00,40.3,5.4,25.31,WSW,257,5.4,5.4,23,0.00,,---,0.00,VWS V14.00,2013-02-08 05:36:00,
2013-02-07 22:41:00,40.5,8.3,25.28,WSW,249,4.9,4.9,26,0.00,,---,0.00,VWS V14.00,2013-02-08 05:41:00,
2013-02-07 22:46:00,40.8,8.6,25.28,WSW,248,4.0,4.0,26,0.00,,---,0.00,VWS V14.00,2013-02-08 05:46:00,
2013-02-07 22:51:00,40.8,8.6,25.28,WSW,248,4.0,4.0,26,0.00,,---,0.00,VWS V14.00,2013-02-08 05:51:00,
2013-02-07 22:56:00,40.5,8.3,25.31,WSW,248,4.0,4.0,26,0.00,,---,0.00,VWS V14.00,2013-02-08 05:56:00,
2013-02-07 23:01:00,40.3,8.1,25.31,WSW,248,3.6,4.0,26,0.00,,---,0.00,VWS V14.00,2013-02-08 06:01:00,
2013-02-07 23:06:00,40.1,8.0,25.31,WSW,248,3.6,3.6,26,0.00,,---,0.00,VWS V14.00,2013-02-08 06:06:00,
2013-02-07 23:11:00,40.5,8.3,25.31,WSW,248,0.0,0.0,26,0.00,,---,0.00,VWS V14.00,2013-02-08 06:11:00,
2013-02-07 23:16:00,40.6,8.4,25.31,WSW,248,0.0,0.0,26,0.00,,---,0.00,VWS V14.00,2013-02-08 06:16:00,
2013-02-07 23:21:00,40.6,8.4,25.31,WSW,248,0.0,0.0,26,0.00,,---,0.00,VWS V14.00,2013-02-08 06:21:00,
2013-02-07 23:26:00,40.5,8.3,25.31,WSW,248,0.0,0.0,26,0.00,,---,0.00,VWS V14.00,2013-02-08 06:26:00,
2013-02-07 23:31:00,40.3,8.1,25.31,WSW,246,4.0,4.0,26,0.00,,---,0.00,VWS V14.00,2013-02-08 06:31:00,
2013-02-07 23:36:00,40.3,8.1,25.31,WSW,247,3.1,4.0,26,0.00,,---,0.00,VWS V14.00,2013-02-08 06:36:00,
2013-02-07 23:41:00,39.9,7.8,25.31,WSW,247,3.6,3.6,26,0.00,,---,0.00,VWS V14.00,2013-02-08 06:41:00,
2013-02-07 23:46:00,39.4,7.4,25.31,WSW,247,4.0,4.0,26,0.00,,---,0.00,VWS V14.00,2013-02-08 06:46:00,
2013-02-07 23:51:00,39.6,7.5,25.31,WSW,247,4.9,4.9,26,0.00,,---,0.00,VWS V14.00,2013-02-08 06:51:00,
2013-02-07 23:56:00,39.6,7.5,25.31,WSW,247,4.0,4.5,26,0.00,,---,0.00,VWS V14.00,2013-02-08 06:56:00,